Welcome to the New NWS' Forecast!
Most changes are behind the scenes, but click here for differences you might notice.

Regional Weather Roundup (RWR)

Issued by Gray - Portland, ME (GYX)

                            
610 
ASUS41 KGYX 190310
RWRGYX
WEATHER ROUNDUP FOR MAINE AND NEW HAMPSHIRE
NATIONAL WEATHER SERVICE GRAY ME
1100 PM EDT WED JUL 18 2018

MEZ002-005-006-010-012-015-018-020-021-024-026-027-029-190400-
MAINE
  
CITY           SKY/WX    TMP DP  RH WIND       PRES   REMARKS
PORTLAND       FAIR      66  45  46 N10       29.97R                  
SANFORD        FAIR      54  53  97 CALM      29.98R                  
BAR HARBOR     FAIR      63  51  65 N3        29.94R                  
WISCASSET      FAIR      61  52  72 CALM      29.98R                  
ROCKLAND       FAIR      66  50  56 VRB6      29.95R                  
FRYEBURG       FAIR      51  50  96 CALM      30.00R                  
LEWISTONAUBURN FAIR      61  47  59 CALM      29.99R                  
AUGUSTA        FAIR      61  46  57 NW8       29.97R                  
WATERVILLE     FAIR      61  47  59 N5        29.95R                  
BANGOR         FAIR      62  49  62 NW6       29.95R                  
GREENVILLE       N/A     57  49  74 NW8       29.96R                  
MILLINOCKET    FAIR      60  51  72 NW5       29.95R                  
HOULTON        FAIR      50  50 100 CALM      29.92                   
PRESQUE ISLE   FAIR      52  48  86 S3        29.95R                  
FRENCHVILLE    FAIR      58  44  60 NW6       29.93S                  
CARIBOU        FAIR      57  46  66 NW6       29.93R                  
$$

NHZ002-005-008-009-011-012-014-190400-
NEW HAMPSHIRE
  
CITY           SKY/WX    TMP DP  RH WIND       PRES   REMARKS
PORTSMOUTH     CLEAR     66  51  57 N6        29.96R                  
ROCHESTER      FAIR      60  52  74 NW6       29.97R                  
NASHUA         FAIR      61  56  83 W5        29.99R                  
MANCHESTER     FAIR      68  48  48 NW7       29.97R                  
CONCORD        FAIR      63  49  60 NW6       29.99R                  
LACONIA        FAIR      58  52  80 CALM      30.00R                  
PLYMOUTH         N/A     53  49  86 CALM      30.01R                  
BERLIN         FAIR      50  47  89 CALM      30.02R                  
WHITEFIELD     FAIR      50  47  89 CALM      30.03R                  
JAFFREY        FAIR      55  53  93 CALM      30.02R                  
KEENE          FAIR      54  50  86 S3        30.02R                  
LEBANON        FAIR      55  48  77 CALM      30.01R                  
MT WASHINGTON  PTCLDY    39  32  75 N28         N/A                   
$$

VTZ005-007-008-190400-
VERMONT
  
CITY           SKY/WX    TMP DP  RH WIND       PRES   REMARKS
ST JOHNSBURY     N/A     54  49  83 MISG      30.01R                  
MONTPELIER     FAIR      51  45  79 CALM      30.07R                  
BURLINGTON     FAIR      60  47  61 E3        30.01S                  
$$

MAZ007-012-024-CTZ003-RIZ002-NYZ038-NYZ072-190400-
SOUTHERN NEW ENGLAND AND NY
  
CITY           SKY/WX    TMP DP  RH WIND       PRES   REMARKS
BOSTON         FAIR      74  48  39 N9        29.95S                  
NANTUCKET      FAIR      59  57  93 N5        29.94R                  
PROVIDENCE     FAIR      70  52  52 N8        29.96R                  
HARTFORD       FAIR      63  53  70 NW5       29.98R                  
ALBANY         FAIR      68  48  48 N6        30.01R                  
NEW YORK CITY  FAIR      77  53  43 NW8       29.97R                  
$$

ANZ081-ANZ082-ANZ150-NHZ014-MEZ023>029-190400-
COASTAL MARINE OBSERVATIONS
  
STATION/POSITION TIME  TEMP    WIND        PRES    WAVE
                       AIR SEA DIR/SP/G            HT/PER
                 (UTC) (F)     (DEG/KT/KT) (MB)    (FT/S)
MOUNT DESERT ROC 0300   64     320/ 10/ 10 1013.4R
MATINICUS ROCK   0200   66     350/ 14/ 14 1012.9R
ISLE OF SHOALS   0200   69     290/  6/  7 1013.6R
JEFFREYS LEDGE   0236      69                N/A     2/ 7
$$

.............KEY..............
   WCI - WIND CHILL
   TC  - TEMPERATURE IN CELSIUS
   VSB - VISIBILITY IN MILES
   HX  - HEAT INDEX
   FAIR- INDICATES FEW OR NO CLOUDS BELOW 12,000 FT, WITH NO 
         SIGNIFICANT WEATHER AND/OR OBSTRUCTIONS TO VISIBILITY.